#timestamp,LO_Frequency,Hit 
1502755215.9,286046996.4,N
1502755235.7,286046993.4,N
1502755255.5,286046994.8,N
1502755275.4,286046993.4,N
1502755295.2,286046996.2,N
1502755315.0,286046995.6,N
1502755315.9,286046995.6,N
1502755335.7,286046993.7,N
1502755355.6,286046997.0,N
1502755375.4,286046997.6,N
1502755395.2,286046997.3,N
1502755415.1,286046999.5,N
1502755416.0,286046999.5,N
1502755435.8,286046996.5,N
1502755455.6,286046996.9,N
1502755475.5,286046998.1,N
1502755495.3,286047000.8,N
1502755515.1,286046998.6,N
1502755535.9,286047000.6,N
1502755555.7,286047000.3,N
1502755575.5,286047000.1,N
1502755595.3,286046998.5,N
1502755615.2,286047000.6,N
1502755635.0,286047001.0,N
1502755635.9,286047001.0,N
1502755655.7,286047001.0,N
1502755675.6,286047000.6,N
1502755695.4,286047003.5,N
1502755715.2,286047004.4,N
1502755735.1,286047001.4,N
1502755736.0,286047001.4,N
1502755755.8,286047002.0,N
1502755775.6,286047004.3,N
1502755795.5,286047004.2,N
1502755815.3,286047004.0,N
1502755835.1,286047003.7,N
1502755855.9,286047002.0,N
1502755875.7,286047001.9,N
1502755895.5,286047003.0,N
1502755915.3,286047005.2,N
1502755935.2,286047005.9,N
1502755955.9,286047003.0,N
1502755975.8,286047006.0,N
1502755995.7,286047003.5,N
1502756015.5,286047005.2,N
1502756035.3,286047003.1,N
1502756055.2,286047003.3,N
1502756075.9,286047005.3,N
1502756095.7,286047005.3,N
1502756115.6,286047007.6,N
1502756135.4,286047007.4,N
1502756155.2,286047006.7,N
1502756175.0,286047006.7,N
1502756175.9,286047006.7,N
1502756195.8,286047004.5,N
1502756215.6,286047004.5,N
1502756235.4,286047007.6,N
1502756255.3,286047009.2,N
1502756275.1,286047007.1,N
1502756295.8,286047007.5,N
1502756315.7,286047005.5,N
1502756335.5,286047004.6,N
1502756355.3,286047004.9,N
1502756375.2,286047006.4,N
1502756395.9,286047006.4,N
1502756415.7,286047006.5,N
1502756435.5,286047007.5,N
1502756455.4,286047007.4,N
1502756475.2,286047006.4,N
1502756495.0,286047006.3,N
1502756495.9,286047006.3,N
1502756515.8,286047010.2,N
1502756535.6,286047008.8,N
1502756555.4,286047010.1,N
1502756575.3,286047010.9,N
1502756595.1,286047011.2,N
1502756596.0,286047011.2,N
1502756615.8,286047011.5,N
1502756635.7,286047011.7,N
1502756655.5,286047009.5,N
1502756675.3,286047009.6,N
1502756695.2,286047011.8,N
1502756715.9,286047009.3,N
1502756735.7,286047011.5,N
1502756755.5,286047012.3,N
1502756775.4,286047012.4,N
1502756795.2,286047012.1,N
1502756815.0,286047013.2,N
1502756815.9,286047013.2,N
1502756835.8,286047013.2,N
1502756855.6,286047013.1,N
1502756875.4,286047015.6,N
1502756895.3,286047016.8,N
1502756915.1,286047014.5,N
1502756916.0,286047014.5,N
1502756935.8,286047015.4,N
1502756955.7,286047012.7,N
1502756975.5,286047015.5,N
1502756995.3,286047015.3,N
1502757015.1,286047015.3,N
1502757035.9,286047012.5,N
1502757055.7,286047015.1,N
1502757075.5,286047015.6,N
1502757095.4,286047014.6,N
1502757115.2,286047014.2,N
1502757135.0,286047017.2,N
1502757135.9,286047017.2,N
1502757155.8,286047014.7,N
1502757175.6,286047012.7,N
1502757195.4,286047015.4,N
1502757215.3,286047012.7,N
1502757235.1,286047014.9,N
1502757236.0,286047014.9,N
1502757255.8,286047011.2,N
1502757275.6,286047013.9,N
1502757295.5,286047013.5,N
1502757315.3,286047011.0,N
1502757335.1,286047011.3,N
1502757355.9,286047012.4,N
1502757375.7,286047009.6,N
1502757395.5,286047012.7,N
1502757415.4,286047012.9,N
1502757435.2,286047015.0,N
1502757455.0,286047011.0,N
1502757455.9,286047011.0,N
1502757475.8,286047011.3,N
1502757495.6,286047013.6,N
1502757515.4,286047014.9,N
1502757535.3,286047014.2,N
1502757555.1,286047017.0,N
1502757556.0,286047017.0,N
1502757575.8,286047017.1,N
1502757595.6,286047018.5,N
1502757615.5,286047017.3,N
1502757635.3,286047019.3,N
1502757655.1,286047017.4,N
1502757675.9,286047019.1,N
1502757695.7,286047017.8,N
1502757715.5,286047017.3,N
1502757735.4,286047018.2,N
1502757755.2,286047019.6,N
1502757775.0,286047019.2,N
1502757775.9,286047019.2,N
1502757795.8,286047018.9,N
1502757815.6,286047018.9,N
1502757835.4,286047021.9,Y
1502757855.3,286047011.4,N
1502757875.1,286047013.4,N
1502757876.0,286047013.4,N
1502757895.8,286047013.8,N
1502757915.7,286047013.7,N
1502757935.5,286047012.8,N
1502757955.3,286047014.2,N
1502757975.1,286047017.2,N
1502757995.9,286047014.5,N
1502758015.7,286047016.7,N
1502758035.5,286047016.5,N
1502758055.4,286047016.8,N
1502758075.2,286047017.2,N
1502758095.0,286047016.9,N
1502758095.9,286047016.9,N
1502758115.8,286047016.0,N
1502758135.6,286047018.2,Y
1502758155.4,286047007.1,N
1502758175.3,286047009.1,N
1502758195.1,286047008.9,N
1502758196.0,286047008.9,N
1502758215.8,286047006.6,N
1502758235.7,286047006.4,N
1502758255.5,286047006.7,N
1502758275.3,286047006.1,N
1502758295.1,286047008.7,N
1502758315.9,286047009.2,N
1502758335.7,286047006.5,N
1502758355.5,286047006.7,N
1502758375.4,286047007.4,N
1502758395.2,286047007.1,N
1502758415.0,286047007.7,N
1502758415.9,286047007.7,N
1502758435.8,286047011.6,N
1502758455.6,286047013.9,N
1502758475.4,286047013.8,N
1502758495.3,286047011.0,N
1502758515.1,286047011.3,N
1502758516.0,286047011.3,N
1502758535.8,286047010.1,N
1502758555.6,286047010.7,N
1502758575.5,286047012.2,N
1502758595.3,286047013.3,N
1502758615.1,286047014.0,Y
1502758635.9,286047002.1,N
1502758655.7,286047002.7,N
1502758675.5,286047000.8,N
1502758695.4,286046999.2,N
1502758715.2,286047001.0,N
1502758735.0,286047000.8,N
1502758735.9,286047000.8,N
1502758755.8,286047002.3,N
1502758775.6,286047001.5,N
1502758795.4,286046999.7,N
